Location: Florence
(33.9745°N, 118.2481°W)
Time: 19:37:08
(UTC+00:00)

CZ-2C R/B - Pass Details

Date: 23 March 2023
Orbit: 667 x 781 km, 98.3° (Epoch: 06 June)

Event Time Altitude Azimuth Distance (km) Brightness Sun altitude
Rises 12:15:27 0° 355° (N) 3,083 5.8 -20.7°
Reaches altitude 10° 12:18:05 10° 341° (NNW) 2,181 4.8 -20.2°
Enters shadow 12:20:30 20° 313° (NW) 1,612 3.9 -19.7°
